Rochester, NY

10:55 PM EST on February 11, 2016 (GMT -0500)
Greater Rochester International

Weather History for KROC - March, 2012

Change the Weather History Date:

Sunday, March 4, 2012

  Actual Average Record
Temperature  
Mean Temperature 26 °F 30 °F  
Max Temperature 33 °F 38 °F 69 °F (1974)
Min Temperature 19 °F 22 °F -4 °F (1950)
Degree Days  
Heating Degree Days 39 35  
Month to date heating degree days 111 141  
Since 1 July heating degree days 4123 4927  
Cooling Degree Days 0 0  
Month to date cooling degree days 0 0  
Year to date cooling degree days 0 0  
Moisture  
Dew Point 21 °F    
Average Humidity 77    
Maximum Humidity 85    
Minimum Humidity 69    
Precipitation  
Precipitation 0.17 in 0.08 in 1.52 in (1881)
Month to date precipitation 0.41 0.31  
Year to date precipitation 5.86 4.67  
Snow  
Snow 2.60 in 0.70 in 22.30 in (1999)
Month to date snowfall 3.0 2.8  
Since 1 July snowfall 55.4 81.7  
Snow Depth T in    
Sea Level Pressure  
Sea Level Pressure 29.70 in    
Wind  
Wind Speed 12 mph (WNW)    
Max Wind Speed 21 mph    
Max Gust Speed 28 mph    
Visibility 4 miles    
Events Fog , Snow    
T = Trace of Precipitation, MM = Missing Value Source: NWS Daily Summary

Daily Weather History Graph

Daily Weather History Graph

Search for Another Location

Airport or City:

Trip Planner

Search our weather history database for the weather conditions in past years. The results will help you decide how hot, cold, wet, or windy it might be!

Date:

Astronomy

Mar. 04, 2012 Rise Set
Actual Time 6:40 AM EST 6:04 PM EST
Civil Twilight 6:12 AM EST 6:32 PM EST
Nautical Twilight 5:39 AM EST 7:05 PM EST
Astronomical Twilight 5:06 AM EST 7:38 PM EST
Moon 2:09 PM EST (3/4) 4:05 AM EST (3/4)
Length of Visible Light 12h 20m
Length of Day
11h 23m
Waxing Gibbous, 83% of the Moon is Illuminated
Mar 4
Waxing Gibbous
Mar 8
Full
Mar 14
Last Quarter
Mar 22
New
Mar 30
First Quarter

Hourly Weather History & Observations

Time (EST) Temp. Windchill Dew Point Humidity Pressure Visibility Wind Dir Wind Speed Gust Speed Precip Events Conditions
12:54 AM 33.1 °F 22.6 °F 25.0 °F 72% 29.65 in 10.0 mi WSW 16.1 mph - 0.00 in   Mostly Cloudy
1:54 AM 33.1 °F 23.0 °F 25.0 °F 72% 29.65 in 10.0 mi WSW 15.0 mph - N/A   Mostly Cloudy
2:54 AM 32.0 °F 21.2 °F 24.1 °F 73% 29.64 in 10.0 mi WSW 16.1 mph 21.9 mph N/A   Mostly Cloudy
3:54 AM 32.0 °F 22.5 °F 25.0 °F 75% 29.63 in 5.0 mi WSW 12.7 mph - 0.00 in Snow Light Snow
4:54 AM 32.0 °F 22.1 °F 25.0 °F 75% 29.64 in 10.0 mi WSW 13.8 mph - 0.00 in Snow Light Snow
5:39 AM 30.2 °F 20.8 °F 26.6 °F 86% 29.63 in 4.0 mi WSW 11.5 mph - 0.00 in Snow Light Snow
5:54 AM 30.9 °F 23.5 °F 27.0 °F 85% 29.65 in 7.0 mi WSW 8.1 mph - 0.00 in Snow Light Snow
6:30 AM 30.2 °F 21.9 °F 26.6 °F 86% 29.64 in 2.0 mi WSW 9.2 mph - 0.00 in Snow Light Snow
6:54 AM 30.9 °F 22.8 °F 27.0 °F 85% 29.67 in 2.0 mi West 9.2 mph - 0.00 in Snow Light Snow
7:09 AM 28.4 °F 18.5 °F 26.6 °F 93% 29.65 in 0.5 mi WNW 11.5 mph - 0.01 in Snow Light Snow
7:37 AM 28.4 °F 17.0 °F 24.8 °F 86% 29.64 in 1.0 mi NW 15.0 mph 20.7 mph 0.01 in Snow Light Snow
7:46 AM 28.4 °F 19.1 °F 24.8 °F 86% 29.65 in 2.0 mi NW 10.4 mph - 0.01 in Snow Light Snow
7:54 AM 28.9 °F 19.2 °F 24.1 °F 82% 29.67 in 2.0 mi NW 11.5 mph - 0.02 in Snow Light Snow
8:33 AM 28.4 °F 18.0 °F 24.8 °F 86% 29.66 in 6.0 mi WNW 12.7 mph - 0.00 in Snow Light Snow
8:54 AM 28.9 °F 18.6 °F 24.1 °F 82% 29.68 in 3.0 mi WNW 12.7 mph - 0.00 in Snow Light Snow
9:01 AM 28.4 °F 18.0 °F 23.0 °F 80% 29.66 in 3.0 mi NW 12.7 mph - 0.00 in Snow Light Snow
9:08 AM 28.4 °F 18.5 °F 23.0 °F 80% 29.66 in 2.5 mi NW 11.5 mph - 0.00 in Snow Light Snow
9:46 AM 26.6 °F 17.5 °F 23.0 °F 86% 29.66 in 1.5 mi NNW 9.2 mph - 0.00 in Snow Light Snow
9:54 AM 27.0 °F 18.0 °F 23.0 °F 85% 29.69 in 1.5 mi NW 9.2 mph - 0.00 in Snow Light Snow
10:40 AM 26.6 °F 20.0 °F 23.0 °F 86% 29.68 in 0.8 mi WNW 5.8 mph - 0.00 in Snow Light Snow
10:47 AM 26.6 °F 21.2 °F 24.8 °F 93% 29.68 in 0.5 mi NNW 4.6 mph - 0.01 in Fog , Snow Snow
10:54 AM 27.0 °F 18.7 °F 23.0 °F 85% 29.70 in 1.0 mi NNW 8.1 mph - 0.01 in Snow Light Snow
11:11 AM 26.6 °F 18.2 °F 23.0 °F 86% 29.68 in 0.8 mi WNW 8.1 mph - 0.00 in Snow Light Snow
11:22 AM 26.6 °F 16.8 °F 21.2 °F 80% 29.68 in 1.5 mi WNW 10.4 mph - 0.00 in Snow Light Snow
11:54 AM 27.0 °F 17.3 °F 19.9 °F 75% 29.70 in 2.5 mi NW 10.4 mph - 0.00 in Snow Light Snow
12:02 PM 26.6 °F 18.2 °F 19.4 °F 74% 29.68 in 2.5 mi WNW 8.1 mph - 0.00 in Snow Light Snow
12:20 PM 26.6 °F 16.8 °F 19.4 °F 74% 29.68 in 6.0 mi NW 10.4 mph - 0.00 in Snow Light Snow
12:54 PM 28.0 °F 19.3 °F 19.9 °F 72% 29.69 in 3.0 mi WNW 9.2 mph - 0.00 in Snow Light Snow
1:03 PM 26.6 °F 17.5 °F 19.4 °F 74% 29.68 in 2.0 mi WNW 9.2 mph - 0.00 in Snow Light Snow
1:54 PM 27.0 °F 17.3 °F 19.9 °F 75% 29.68 in 2.0 mi WNW 10.4 mph - 0.00 in Snow Light Snow
2:54 PM 27.0 °F 18.7 °F 18.0 °F 69% 29.69 in 7.0 mi West 8.1 mph - 0.00 in   Overcast
3:54 PM 27.0 °F 15.6 °F 18.0 °F 69% 29.71 in 7.0 mi West 13.8 mph - 0.00 in Snow Light Snow
4:11 PM 26.6 °F 15.7 °F 19.4 °F 74% 29.70 in 2.0 mi WNW 12.7 mph - 0.00 in Snow Light Snow
4:44 PM 24.8 °F 13.4 °F 19.4 °F 80% 29.71 in 1.5 mi WNW 12.7 mph - 0.00 in Snow Light Snow
4:54 PM 25.0 °F 14.2 °F 19.9 °F 81% 29.73 in 2.0 mi WNW 11.5 mph - 0.00 in Snow Light Snow
5:54 PM 23.0 °F 11.1 °F 18.0 °F 81% 29.76 in 2.0 mi NW 12.7 mph - 0.00 in Snow Light Snow
6:43 PM 23.0 °F 11.1 °F 17.6 °F 80% 29.75 in 4.0 mi NW 12.7 mph 20.7 mph 0.00 in Snow Light Snow
6:54 PM 23.0 °F 11.1 °F 18.0 °F 81% 29.77 in 5.0 mi WNW 12.7 mph - 0.00 in Snow Light Snow
7:08 PM 21.2 °F 11.7 °F 17.6 °F 86% 29.76 in 8.0 mi WNW 8.1 mph - 0.00 in Snow Light Snow
7:44 PM 23.0 °F 10.6 °F 17.6 °F 80% 29.76 in 2.5 mi NW 13.8 mph 20.7 mph 0.00 in Snow Light Snow
7:54 PM 21.9 °F 9.2 °F 17.1 °F 82% 29.79 in 2.5 mi NW 13.8 mph 21.9 mph 0.00 in Snow Light Snow
8:19 PM 21.2 °F 8.9 °F 15.8 °F 80% 29.78 in 4.0 mi NW 12.7 mph - 0.00 in Snow Light Snow
8:54 PM 21.0 °F 9.9 °F 15.1 °F 78% 29.82 in 8.0 mi NW 10.4 mph 19.6 mph 0.00 in Snow Light Snow
9:54 PM 19.9 °F 8.6 °F 12.9 °F 74% 29.84 in 9.0 mi NW 10.4 mph - 0.00 in Snow Light Snow
10:54 PM 19.0 °F 3.6 °F 12.0 °F 74% 29.85 in 9.0 mi WNW 18.4 mph 25.3 mph 0.00 in Snow Light Snow
11:54 PM 19.9 °F 9.3 °F 12.9 °F 74% 29.87 in 6.0 mi WNW 9.2 mph - 0.00 in Snow Light Snow